www.pogodaiklimat.ru
ПОГОДА в Панкалпинанге
Время
(UTC), дата
12 29.11
15 29.11
18 29.11
21 29.11
00 30.11
03 30.11
06 30.11
09 30.11
12 30.11
15 30.11
18 30.11
21 30.11
00 1.12
03 1.12
06 1.12
09 1.12
12 1.12
15 1.12
18 1.12
21 1.12
00 2.12
03 2.12
06 2.12
09 2.12
12 2.12
15 2.12
18 2.12
21 2.12
00 3.12
03 3.12
06 3.12
09 3.12
12 3.12
15 3.12
18 3.12
21 3.12
00 4.12
03 4.12
06 4.12
09 4.12
12 4.12
15 4.12
18 4.12
21 4.12
00 5.12
03 5.12
06 5.12
09 5.12
12 5.12
15 5.12
18 5.12
21 5.12
00 6.12
03 6.12
06 6.12
09 6.12
Ветер
(напр.,м/с)
Видим. Явления Облачность Т
(С)
Тd
(С)
f
(%)
Тe
(С)
Тes
(С)
Комфортность P
(гПа)
Po
(гПа)
Тmin
(С)
Tmax
(С)
R
(мм)
R24
(мм)
S
(см)
З 1 8000 м {гроза} 6/3 480 м
[Cu hum Ac trans Ci fib]
+27.5 +24.4 83 +39 +39 очень
душно
1008.3 1004.1 +33.1
З 1 8000 м 6/3 480 м
[Cu hum Ac trans Cs]
+26.4 +24.3 88 +37 +37 очень
душно
1009.9 1005.7
З 1 8000 м 6/3 480 м
[Cu hum Ac trans Cs]
+26.2 +24.4 90 +37 +37 очень
душно
1009.3 1005.1
З 1 8000 м 8/3 480 м
[Cu hum Ac trans Cs]
+25.6 +23.9 90 +35 +35 очень
душно
1008.1 1003.9
З 1 8000 м 8/3 480 м
[Cu hum Ac trans Ci fib]
+28.2 +25.2 84 +41 +42 опасность
перегрева
1010.0 1005.8 +25.0 0.0
С 4 10 км 8/4 480 м
[Cu med, cong As trans Ci sp]
+30.9 +24.8 70 +44 +48 опасность
перегрева
1010.3 1006.1
СВ 4 10 км 8/4 450 м
[Cb cap Ac As Ci sp]
+32.2 +24.8 65 +45 +50 опасность
перегрева
1008.1 1003.9
З 2 10 км 9/4 450 м
[Cb calv Ac As Ci fib]
+27.8 +23.9 79 +38 +40 очень
душно
1007.3 1003.1
ЮВ 1 8000 м 9/4 480 м
[Cu hum Ac trans Ci]
+27.2 +24.1 83 +38 +38 очень
душно
1008.6 1004.4 +33.9
Ю 1 7000 м 9/3 480 м
[Cb calv As trans Cs]
+26.3 +23.5 85 +36 +36 очень
душно
1009.2 1005.0
З 2 7000 м 9/3 480 м
[Cu hum Ac trans Cs]
+25.4 +23.6 90 +35 +35 очень
душно
1008.3 1004.1
В 1 7000 м 9/3 480 м
[Cu hum Ac trans Cs]
+25.0 +23.8 93 +34 +34 очень
душно
1007.6 1003.4
СЗ 1 5000 м дым 8/4 480 м
[Cu med, cong Ac trans Ci sp]
+25.8 +24.6 93 +36 +37 очень
душно
1009.1 1005.1 +24.2
С 2 10 км 9/5 420 м
[Cb cap Ac trans Ci sp]
+30.1 +25.4 76 +44 +49 опасность
перегрева
1009.8 1005.9
В 4 10 км 9/5 420 м
[Cb cap Ac trans Ci sp]
+33.0 +24.6 61 +46 +50 опасность
перегрева
1007.6 1003.7
В 3 10 км 9/5 420 м
[Cb cap Ac trans Ci sp]
+31.1 +23.8 65 +42 +44 опасность
перегрева
1006.6 1002.4
СЗ 1 10 км 9/3 480 м
[Cu hum Ac trans Ci sp]
+28.7 +24.5 78 +41 +41 опасность
перегрева
1007.8 1003.6 +33.4
З 2 8000 м 9/3 480 м
[Cu hum Ac trans Cs]
+27.0 +24.4 86 +38 +38 очень
душно
1009.5 1005.3
З 2 7000 м 10/4 480 м
[Cu hum Ac As Cs]
+26.4 +24.1 87 +37 +37 очень
душно
1008.6 1004.4
З 1 6000 м 10/4 480 м
[Cu hum Ac As Cs]
+26.1 +24.3 90 +36 +36 очень
душно
1008.2 1004.0
З 3 7000 м 10/4 450 м
[Cb cap Ac As Cs]
+26.3 +24.0 87 +36 +37 очень
душно
1009.9 1005.7 +25.0
З 1 4000 м слаб. дождь 10/4 450 м
[Cb cap Ac As Cs]
+26.1 +24.0 88 +36 +41 очень
душно
1011.2 1007.0 0.0
З 3 10 км {дождь} 10/4 480 м
[Cu hum As trans Cs]
+29.9 +24.9 75 +43 +48 опасность
перегрева
1008.7 1004.5 0.0
З 3 10 км 10/6 420 м
[Cb cap Ac As Cs]
+29.7 +23.4 69 +40 +41 очень
душно
1006.8 1002.9
З 2 7000 м 9/4 480 м
[Cu med, cong Ac As Cs]
+27.6 +23.4 78 +37 +37 очень
душно
1008.3 1004.4 +31.1
СЗ 2 7000 м 9/4 480 м
[Cu hum Ac As Cs]
+26.4 +24.4 89 +37 +37 очень
душно
1010.0 1005.8
З 2 7000 м 10/4 480 м
[Cu hum Ac trans Cs]
+25.8 +24.1 90 +36 +36 очень
душно
1009.8 1005.6
ЮЗ 1 7000 м 10/4 480 м
[Cu med, cong Ac trans Cs]
+25.8 +24.0 90 +36 +36 очень
душно
1008.5 1004.3
З 1 7000 м 10/4 480 м
[Cu hum As trans Cs]
+26.0 +23.9 88 +36 +36 очень
душно
1009.9 1005.9 +25.4 0.0
СЗ 2 3000 м слаб. дождь 10/4 480 м
[Cu hum As trans Cs]
+25.7 +23.9 90 +35 +40 очень
душно
1012.0 1007.9 0.4
З 3 6000 м в посл. час дождь 10/4 480 м
[Cu hum As trans Cs]
+27.4 +24.9 86 +39 +44 очень
душно
1009.6 1005.5 1
З 3 10 км 9/4 480 м
[Cu hum As trans Cs]
+29.2 +24.3 75 +41 +42 опасность
перегрева
1007.8 1003.7
СЗ 2 8000 м 9/4 480 м
[Cu hum Ac As Ci fib]
+27.4 +23.9 81 +38 +38 очень
душно
1009.8 1005.7 +31.4
З 1 7000 м 8/4 480 м
[Cu med, cong Ac trans Ci sp]
+25.9 +24.4 91 +36 +36 очень
душно
1011.0 1007.0
З 1 7000 м 9/4 480 м
[Cu med, cong Ac trans Ci sp]
+25.2 +23.9 93 +35 +35 очень
душно
1009.2 1005.2
З 1 7000 м 8/4 480 м
[Cu med, cong Ac trans Ci sp]
+24.9 +23.8 94 +34 +34 очень
душно
1008.2 1004.2
З 1 8000 м 8/3 480 м
[Cu hum Ac trans Ci fib]
+25.5 +24.1 92 +35 +36 очень
душно
1010.5 1006.4 +24.5 2
СВ 3 9000 м 9/3 480 м
[Cu hum Ac As Ci ing]
+30.2 +25.1 74 +44 +48 опасность
перегрева
1011.0 1006.9
С 4 9000 м {дождь} 10/4 480 м
[Cu hum Ac As Cs]
+29.8 +24.8 75 +43 +46 опасность
перегрева
1009.4 1005.3 0.9
СЗ 5 7000 м {гроза, дождь} 10/4 450 м
[Cb calv As trans Cs]
+27.9 +24.4 81 +39 +40 очень
душно
1008.4 1004.3 1
СЗ 5 7000 м {гроза, дождь} 10/4 480 м
[Cu hum As trans Cs]
+27.6 +23.5 78 +37 +37 очень
душно
1010.8 1006.7 +30.3 0.0
З 2 7000 м 10/4 480 м
[Cu hum As trans Cs]
+25.3 +23.4 89 +34 +34 очень
душно
1011.9 1007.8
З 2 7000 м 10/4 450 м
[Cb cap As trans Cs]
+24.8 +23.2 91 +33 +33 очень
душно
1010.5 1006.4
СЗ 3 7000 м в посл. час дождь 10/4 450 м
[Cb cap As trans Cs]
+24.6 +23.6 94 +33 +33 очень
душно
1010.0 1005.9 0.1
СЗ 2 7000 м {дождь} 10/4 450 м
[Cb cap As op Cs]
+24.2 +23.1 94 +32 +33 очень
душно
1012.3 1008.2 +24.2 2
С 2 9000 м в посл. час дождь 10/5 450 м
[Cu hum As op Cs]
+26.5 +24.3 88 +37 +41 очень
душно
1012.6 1008.5 0.0
СЗ 4 9000 м {дождь} 10/6 450 м
[Cu med, cong As trans Cs]
+29.4 +24.3 74 +41 +44 опасность
перегрева
1010.4 1006.3 0.0
З 2 9000 м 10/6 450 м
[Cu med, cong As trans Cs]
+28.4 +24.3 78 +40 +41 очень
душно
1009.2 1005.0
З 2 7000 м 10/5 480 м
[Cu hum Ac As Cs]
+26.4 +24.3 88 +37 +37 очень
душно
1010.8 1006.7 +29.4
З 2 7000 м 10/4 480 м
[Cu hum Ac As Ci fib]
+25.8 +23.7 88 +35 +35 очень
душно
1011.9 1007.8
З 1 7000 м 10/4 480 м
[Cu hum Ac As Ci fib]
+25.4 +23.6 90 +35 +35 очень
душно
1010.7 1006.6
С 1 7000 м 10/4 450 м
[Cb calv Ac As Cs]
+25.3 +23.7 91 +34 +34 очень
душно
1009.5 1005.4
СЗ 2 9000 м {дождь} 10/5 480 м
[Cu med, cong Ac As Cs]
+25.6 +23.9 90 +35 +35 очень
душно
1010.5 1006.6 +24.0 0.2
З 1 10 км в посл. час гроза 10/6 420 м
[Cb cap Ac As]
+26.8 +24.6 88 +38 +38 очень
душно
1011.4 1007.5
З 3 3000 м гроза, ливневой дождь 10/6 420 м
[Cb cap Ac As]
+24.9 +23.6 92 +34 +35 очень
душно
1010.6 1006.6 3
З 1 10 км слаб. дождь {гроза} 10/6 420 м
[Cb cap As op]
+24.4 +23.7 96 +33 +34 очень
душно
1009.4 1005.3 8
Местоположение метеостанции Панкалпинанг (Индонезия): широта -2.17 долгота 106.13 высота над уровнем моря 33 м.
В архиве по умолчанию представлена погода в Панкалпинанге за последнюю неделю. Архивные данные за месяц целиком и за предыдущие месяцы, начиная с января 2011 года, Вы можете получить, выбрав интересующий диапазон дат из раскрывающегося списка и нажав кнопку "Найти!".
*Определитесь, кто Вы:
Внимание! Время в таблицах - всемирное. Для получения местного времени необходимо прибавить поправку, которая равна 7 ч.
Смотрите также архив погоды в соседних городах и на ближайших метеорологических станциях:
Партнеры нашего сайта:      
Пояснения к столбцам:
  • Ветер - указаны скорость ветра в м/с - средняя за 10 мин, порывы в срок и между сроками (в фигурных скобках) и направление, откуда дует ветер: С - северный,
  • СВ - северо-восточный, В - восточный, ЮВ - юго-восточный, Ю - южный, ЮЗ - юго-западный, З - западный, СЗ - северо-западный.
  • Видимость - горизонтальная дальность видимости в метрах или километрах. При видимости от 1 до 10 км при отсутствии осадков обычно наблюдается дымка, при ухудшении видимости до 1 км и менее - туман. В сухую погоду видимость может ухудшаться дымом, пылью или мглою.
  • Явления - указаны атмосферные явления, наблюдавшиеся в срок или в последний час перед сроком; фигурными скобками обозначены явления, наблюдавшиеся между сроками (за 1-3 часа до срока); квадратными скобками обозначены град или гололедные отложения с указанием их диаметра в мм.
  • Облачность - указаны через наклонную черту общая и нижняя облачность в баллах и высота нижней границы облаков в метрах; квадратными скобками обозначены формы облаков: Ci - перистые, Cs - перисто-слоистые, Cc - перисто-кучевые, Ac - высококучевые, As - высокослоистые, Sc - слоисто-кучевые, Ns - слоисто-дождевые, Cu - кучевые, Cb - кучево-дождевые. Подробнее классификацию облаков см. в Атласе облаков (PDF).
  • T - Температура воздуха - температура, измеренная на высоте 2 м над землей.
  • Td - Температура точки росы - температура, при понижении до которой содержащийся в воздухе водяной пар достигнет насыщения.
  • f - Относительная влажность воздуха - влажноcть воздуха, измеренная на высоте 2 м над землей.
  • Te - Эффективная температура - температура, которую ощущает одетый по сезону человек в тени. Характеристика душности погоды. При расчете учитывается влияние влажности воздуха и скорости ветра на теплоощущения человека.
  • Tes - Эффективная температура на солнце - температура, которую ощущает человек, с поправкой на солнечный нагрев. Характеристика знойности погоды. Зависит от высоты солнца над горизонтом, облачности и скорости ветра. Ночью, в пасмурную погоду, а также при ветре 12 м/с и более поправка равна нулю.
  • P - Атмосферное давление - приведенное к уровню моря атмосферное давление.
  • Po - Атмосферное давление - измеренное на уровне метеостанции атмосферное давление.
  • Tmin - Минимальная температура - минимум температуры воздуха на высоте 2 м над землей.
  • Tmax - Максимальная температура - максимум температуры воздуха на высоте 2 м над землей.
  • R - Количество осадков - Количество выпавших осадков за период времени, мм. При наведении курсора мыши на число - период времени, за который выпало указанное количество осадков.
  • R24 - Количество осадков - Количество выпавших осадков за 24 часа, мм.
  • S - Снежный покров - Высота снежного покрова, см. При наведении курсора мыши на число - состояние снежного покрова и степень покрытия местности в баллах.